Wind_Speed
10 8 6 5 6 9 11 11 12 15 16 19 18 17 18 19 19 19 20 19 16 13 11 11 11 12 14 17 17 17 17 17 16 15 13 10 9 7 6 5 4 3 3 2
10 9 7 6 9 11 11 11 13 16 16 17 16 16 17 16 16 18 19 18 14 12 10 9 9 10 12 14 15 17 17 17 15 14 12 9 8 7 5 5 3 3 2 2
11 9 8 9 11 11 11 13 15 16 16 15 16 16 18 15 14 17 17 16 14 11 8 7 7 8 9 11 12 14 14 14 14 13 11 9 8 7 6 5 4 3 3 2
11 10 11 14 14 13 14 14 16 15 13 16 15 18 18 16 15 16 17 15 12 9 6 5 4 4 7 8 10 11 12 12 12 11 10 9 8 7 6 5 5 4 4 3
11 11 15 16 16 15 15 15 14 14 14 15 13 14 15 17 17 17 18 16 12 7 5 3 1 3 5 7 9 9 10 11 11 10 9 9 8 8 7 6 6 5 5 4
15 15 16 16 16 15 15 14 13 15 16 18 12 10 12 14 17 17 17 16 11 7 5 3 1 1 3 6 8 10 10 10 9 9 10 9 9 8 7 7 7 6 6 5
14 16 17 17 17 15 15 16 16 17 19 17 10 8 10 13 15 15 16 14 10 7 5 3 2 2 3 5 8 9 9 9 9 9 9 9 9 8 8 8 8 7 7 7
15 16 15 17 18 16 16 16 17 19 18 18 12 9 11 10 13 14 14 12 9 6 4 3 2 3 4 5 6 8 8 8 9 9 10 10 10 9 9 9 9 9 9 8
16 16 15 17 16 17 17 17 17 20 17 16 15 11 12 9 9 12 13 12 9 7 5 3 3 3 4 6 7 8 9 8 8 9 10 10 10 10 11 11 10 10 10 10
19 20 18 19 16 17 18 17 18 19 17 16 18 19 14 10 8 10 12 12 10 8 6 5 4 4 5 6 7 8 9 9 8 9 10 11 11 11 12 12 12 12 12 12
22 23 21 21 20 19 20 20 19 19 18 18 19 21 17 9 7 9 12 12 10 8 7 6 6 5 6 7 7 8 9 9 9 10 11 11 12 12 13 13 13 13 13 13
27 28 27 24 24 23 22 21 20 20 18 18 17 20 19 15 10 8 11 12 10 9 9 7 6 7 7 7 7 8 9 10 10 11 12 13 13 14 14 15 15 15 16 16
30 31 30 27 26 26 24 23 21 20 18 19 17 20 21 17 12 9 12 13 11 10 10 9 8 8 8 8 8 9 10 11 11 12 13 14 15 15 16 16 17 18 19 19
33 32 32 27 28 28 26 23 21 20 19 18 19 21 23 19 13 12 13 13 13 12 12 11 10 9 9 9 10 11 11 12 13 14 14 15 16 17 17 18 19 20 21 22
33 33 32 29 27 27 23 19 18 18 18 20 21 23 23 22 20 17 16 16 15 15 14 13 13 12 12 13 12 12 13 14 15 16 17 17 18 19 19 20 21 22 23 24
34 35 33 31 28 26 23 21 19 17 19 21 23 25 24 24 21 19 19 19 18 17 17 16 16 16 15 14 15 15 16 17 17 18 19 20 20 20 21 22 23 25 26 27
35 35 33 31 27 27 24 22 21 21 22 22 23 25 26 24 23 21 20 20 20 19 19 19 19 19 18 18 19 19 19 20 20 21 22 23 23 23 24 25 26 27 28 29
34 34 33 30 28 27 25 24 23 22 23 24 25 26 26 24 22 22 21 21 21 21 21 21 21 21 21 21 22 23 23 24 24 25 25 26 27 27 28 28 29 30 31 31
30 31 31 30 30 28 25 25 24 22 23 25 25 25 26 24 24 22 20 21 22 23 23 24 24 24 24 25 25 25 26 27 27 28 28 29 30 31 31 31 31 32 33 34
28 31 28 26 27 27 26 25 24 24 24 24 25 26 26 24 24 21 21 21 23 24 25 25 25 26 27 27 27 28 28 29 30 31 31 32 34 33 34 34 34 35 35 36
23 26 27 27 27 26 26 24 22 24 25 24 23 24 23 23 23 23 22 22 23 23 25 26 27 27 28 29 29 30 31 31 32 34 35 36 36 36 36 36 36 36 36 38
23 24 25 27 29 28 27 25 23 23 23 22 22 22 22 23 24 24 23 24 24 25 25 26 28 28 29 31 31 32 33 34 34 36 37 37 38 39 39 39 38 38 38 40
25 26 26 27 28 27 26 25 23 23 23 22 21 22 23 23 24 24 25 25 26 27 27 28 29 30 30 31 33 34 34 34 35 36 38 38 38 39 39 39 40 40 40 40
20 23 24 25 26 25 25 25 26 24 22 21 21 22 22 23 24 24 24 25 26 27 27 28 28 29 30 31 32 33 34 34 34 36 36 35 36 38 37 37 38 40 40 40
16 17 20 22 22 21 21 21 21 21 21 21 22 23 23 23 23 24 24 25 25 26 27 28 29 29 30 31 32 33 33 33 35 35 36 36 36 37 37 37 38 39 40 41
17 15 14 16 17 15 15 17 18 20 20 21 22 22 23 23 23 24 24 25 26 27 27 28 29 30 31 31 32 33 33 33 34 35 35 36 36 37 37 37 38 40 41 41
Wind_Direction
274 274 279 278 277 280 289 295 295 295 296 304 310 313 315 321 327 330 332 329 318 311 296 280 264 241 232 230 228 228 229 231 233 235 230 228 225 230 234 242 252 250 249 255
266 264 266 263 271 279 284 287 288 291 298 307 311 310 314 317 330 334 333 335 324 308 303 285 263 238 229 228 227 229 228 228 230 227 226 224 222 230 232 234 237 238 240 236
262 254 261 272 269 276 280 285 287 294 301 307 312 310 313 328 335 341 338 337 333 319 311 297 257 229 225 226 222 221 224 224 225 220 222 223 225 228 225 223 220 222 214 197
251 241 246 259 267 271 277 284 289 294 298 298 304 304 312 327 335 345 341 338 338 335 323 294 254 217 216 215 212 213 218 218 215 215 218 221 222 219 221 217 215 212 208 200
242 241 246 251 259 264 269 278 286 288 288 283 288 295 312 328 339 342 341 340 337 340 343 323 249 221 210 210 212 210 213 210 207 213 217 218 216 217 220 216 218 216 213 208
239 235 245 255 258 263 272 280 286 291 294 291 294 303 309 324 332 334 337 342 340 343 348 346 284 226 224 218 214 213 212 212 213 216 218 218 216 217 218 219 219 220 215 214
242 236 234 243 254 258 269 280 288 292 301 310 312 308 300 319 326 329 331 338 340 339 347 337 285 253 235 222 215 209 219 221 220 219 220 220 216 216 222 224 225 222 221 223
240 245 243 241 244 251 262 274 284 290 299 311 307 291 294 308 318 326 330 332 333 331 334 329 291 261 238 226 219 214 221 218 219 221 223 221 221 224 228 227 226 225 226 230
233 243 254 256 246 248 255 262 274 283 293 300 298 286 276 286 312 324 329 328 327 323 323 314 288 257 242 230 227 227 223 219 223 227 227 226 227 229 231 231 229 231 234 239
229 232 241 257 253 252 255 261 265 268 280 284 289 289 278 287 313 322 320 322 321 319 314 313 298 274 247 236 233 232 230 231 231 233 232 232 234 235 235 235 236 238 242 246
239 234 232 246 249 246 251 256 260 261 265 273 283 294 297 298 303 312 312 312 310 307 302 300 296 287 258 243 242 240 235 235 240 242 238 238 239 241 240 240 242 245 249 254
233 235 234 236 247 248 249 251 257 262 265 269 277 287 293 291 291 289 299 302 298 298 293 286 280 278 269 253 243 240 241 242 245 245 241 243 244 246 246 246 248 252 256 260
225 230 235 236 241 248 248 244 249 259 261 266 265 275 279 279 273 278 289 294 291 289 288 284 275 268 265 259 252 250 248 247 247 249 249 249 250 250 251 253 255 258 261 264
222 227 230 234 243 250 252 247 241 245 251 259 259 264 272 275 273 271 278 287 290 284 281 279 273 273 268 266 262 258 256 254 254 253 252 254 255 255 257 258 260 263 266 268
224 230 232 233 240 249 258 257 247 245 252 255 258 260 265 270 272 276 281 284 283 280 278 278 276 273 271 268 266 266 264 262 260 260 256 258 260 260 261 263 266 267 269 270
224 229 230 233 237 246 258 263 260 258 260 259 258 261 260 264 269 278 280 278 280 278 275 274 274 276 275 273 272 270 269 268 268 268 267 267 269 268 267 268 269 271 272 273
221 228 231 233 235 239 246 251 253 254 254 253 256 261 264 265 269 275 276 274 273 276 274 274 275 275 277 276 276 275 273 273 273 273 272 272 272 272 273 273 274 275 275 276
222 225 229 233 236 239 238 245 249 253 251 250 254 258 262 266 265 269 270 269 269 271 273 272 273 273 274 275 274 273 274 274 277 277 276 275 275 275 275 276 275 276 276 277
227 227 229 230 235 241 241 243 247 248 248 252 256 259 265 268 270 270 270 269 269 269 270 271 271 270 271 273 273 274 274 274 276 278 277 276 277 277 277 277 277 278 279 278
232 228 230 232 234 237 237 243 244 247 252 255 259 260 263 267 268 272 271 271 271 269 269 270 270 271 272 272 273 274 273 274 276 278 279 280 279 279 278 277 278 280 279 277
233 230 231 234 236 238 242 244 246 246 255 257 258 260 263 266 270 274 273 270 271 271 272 271 271 272 274 275 275 275 276 275 277 279 279 280 279 278 277 276 277 278 277 277
226 230 234 236 237 238 242 245 246 250 254 255 258 262 267 270 272 274 275 274 274 274 274 274 274 273 274 275 276 276 277 277 277 278 279 280 279 278 278 278 278 278 278 281
224 226 227 230 234 239 242 247 246 253 257 260 262 264 268 271 273 275 277 278 277 276 276 276 276 276 276 277 277 278 276 276 278 279 280 280 279 279 279 278 278 280 281 282
229 228 229 231 233 242 244 246 251 256 256 261 266 266 268 272 275 278 279 279 280 280 279 279 278 277 277 277 278 280 280 281 281 281 281 281 281 283 284 283 284 284 283 284
233 234 239 242 243 247 245 247 252 256 260 265 268 270 272 274 278 280 282 282 282 282 281 281 281 281 281 280 280 279 280 280 281 281 281 282 283 284 284 284 285 285 284 284
240 240 236 240 242 244 250 254 255 259 265 268 271 273 275 277 280 282 283 283 283 283 284 284 283 282 282 282 282 281 281 282 282 284 285 286 285 286 287 288 288 288 287 286
Height
5874 5875 5875 5875 5877 5877 5877 5878 5877 5875 5873 5871 5868 5865 5861 5857 5853 5850 5846 5842 5838 5836 5835 5834 5834 5836 5838 5841 5844 5848 5851 5854 5858 5861 5864 5866 5869 5871 5872 5873 5875 5876 5877 5877
5871 5873 5874 5874 5875 5876 5876 5875 5874 5872 5870 5868 5865 5861 5857 5854 5851 5849 5846 5841 5838 5835 5834 5833 5833 5834 5837 5840 5842 5846 5849 5852 5856 5860 5862 5865 5867 5869 5871 5872 5874 5875 5876 5877
5868 5870 5871 5872 5874 5874 5874 5873 5871 5870 5868 5865 5862 5858 5854 5851 5850 5848 5845 5841 5837 5834 5833 5832 5831 5833 5836 5839 5842 5844 5848 5851 5855 5858 5860 5863 5866 5868 5870 5871 5873 5874 5876 5876
5865 5867 5869 5870 5871 5871 5871 5870 5868 5867 5865 5863 5861 5856 5852 5849 5848 5846 5844 5841 5837 5835 5833 5833 5833 5834 5837 5839 5841 5844 5847 5850 5853 5856 5859 5862 5865 5867 5869 5870 5872 5874 5875 5875
5862 5864 5866 5867 5868 5868 5867 5867 5866 5864 5861 5858 5856 5854 5851 5849 5847 5845 5844 5840 5837 5835 5834 5833 5834 5835 5837 5839 5841 5843 5846 5849 5852 5855 5858 5861 5863 5866 5868 5870 5871 5873 5874 5875
5859 5861 5863 5864 5865 5865 5864 5864 5863 5860 5857 5854 5852 5852 5849 5849 5848 5846 5844 5841 5838 5836 5835 5835 5835 5836 5838 5839 5841 5844 5846 5849 5852 5855 5858 5860 5862 5864 5866 5868 5870 5871 5873 5874
5855 5856 5859 5861 5861 5862 5862 5861 5860 5858 5854 5850 5848 5850 5849 5848 5848 5846 5843 5841 5839 5837 5836 5836 5836 5837 5838 5840 5841 5844 5846 5849 5852 5854 5857 5859 5861 5863 5865 5867 5868 5870 5871 5873
5851 5853 5855 5856 5857 5858 5859 5858 5858 5855 5853 5850 5846 5848 5848 5847 5846 5845 5843 5841 5839 5838 5837 5837 5837 5837 5838 5840 5841 5843 5845 5848 5851 5853 5855 5857 5859 5862 5864 5865 5867 5868 5870 5871
5847 5849 5851 5851 5852 5854 5855 5855 5855 5853 5851 5849 5846 5844 5844 5843 5843 5844 5842 5840 5839 5838 5837 5837 5837 5838 5839 5840 5841 5843 5845 5847 5849 5852 5854 5856 5858 5860 5862 5863 5865 5866 5868 5869
5842 5844 5846 5847 5848 5850 5851 5852 5852 5850 5849 5848 5846 5841 5839 5839 5841 5841 5841 5840 5839 5837 5837 5837 5837 5838 5838 5839 5841 5842 5844 5846 5848 5850 5852 5854 5856 5858 5860 5861 5863 5864 5865 5866
5839 5840 5843 5844 5843 5845 5846 5847 5847 5846 5846 5845 5843 5842 5836 5837 5837 5838 5839 5839 5839 5838 5837 5837 5837 5837 5837 5839 5840 5841 5843 5845 5846 5848 5850 5852 5854 5855 5857 5858 5860 5861 5862 5863
5832 5835 5836 5839 5839 5839 5840 5841 5842 5841 5841 5842 5841 5841 5836 5836 5835 5836 5837 5838 5837 5837 5837 5836 5836 5837 5837 5837 5838 5840 5841 5843 5845 5846 5848 5849 5851 5852 5854 5855 5856 5857 5859 5859
5825 5828 5830 5832 5835 5834 5834 5835 5837 5837 5837 5838 5839 5839 5834 5833 5832 5833 5835 5835 5835 5835 5835 5835 5835 5835 5836 5836 5837 5838 5839 5841 5842 5843 5844 5846 5847 5849 5850 5851 5852 5853 5854 5855
5816 5819 5823 5826 5827 5827 5827 5828 5830 5831 5832 5833 5834 5833 5831 5829 5828 5830 5831 5832 5833 5833 5833 5833 5833 5833 5833 5834 5835 5836 5837 5838 5839 5840 5841 5842 5843 5844 5845 5846 5847 5848 5849 5849
5809 5812 5816 5819 5820 5821 5820 5822 5823 5826 5828 5829 5828 5827 5826 5825 5825 5826 5828 5829 5830 5831 5831 5831 5831 5831 5831 5832 5832 5834 5835 5835 5836 5836 5836 5838 5839 5839 5840 5841 5842 5842 5843 5843
5800 5805 5809 5812 5815 5816 5817 5818 5819 5821 5823 5824 5823 5822 5821 5820 5821 5823 5825 5826 5826 5827 5828 5828 5828 5828 5828 5828 5830 5831 5831 5832 5832 5832 5832 5833 5834 5835 5835 5835 5836 5836 5836 5836
5792 5797 5801 5805 5809 5811 5812 5814 5815 5816 5817 5818 5817 5817 5816 5816 5819 5820 5821 5821 5822 5823 5823 5824 5824 5824 5825 5826 5826 5826 5826 5826 5826 5827 5828 5828 5828 5828 5828 5829 5829 5829 5829 5828
5784 5790 5795 5799 5803 5803 5808 5808 5809 5810 5810 5811 5811 5810 5810 5810 5813 5814 5815 5816 5817 5818 5819 5819 5820 5820 5820 5821 5821 5821 5822 5821 5821 5821 5821 5821 5821 5821 5821 5821 5821 5820 5819 5819
5776 5782 5787 5792 5795 5797 5800 5801 5802 5803 5804 5805 5805 5805 5806 5806 5807 5808 5810 5811 5812 5813 5813 5813 5814 5814 5815 5815 5815 5815 5815 5816 5815 5815 5813 5813 5813 5813 5813 5812 5812 5811 5810 5810
5773 5777 5781 5785 5788 5790 5792 5794 5795 5799 5798 5798 5799 5800 5800 5801 5802 5804 5805 5805 5806 5807 5807 5807 5807 5808 5808 5808 5808 5808 5808 5808 5808 5807 5806 5805 5805 5804 5804 5803 5802 5801 5800 5799
5766 5771 5775 5779 5782 5784 5785 5787 5790 5793 5793 5793 5793 5793 5794 5796 5797 5798 5798 5799 5800 5800 5800 5801 5801 5801 5801 5801 5801 5800 5800 5799 5799 5799 5798 5797 5796 5794 5793 5792 5792 5791 5789 5789
5762 5767 5771 5774 5776 5780 5779 5781 5784 5785 5786 5786 5786 5788 5789 5791 5791 5792 5792 5793 5793 5793 5794 5794 5794 5794 5793 5793 5793 5792 5792 5791 5790 5790 5789 5788 5786 5785 5783 5782 5781 5780 5779 5779
5757 5761 5764 5767 5771 5772 5774 5775 5777 5779 5780 5781 5782 5784 5785 5785 5785 5786 5786 5786 5786 5786 5786 5786 5786 5786 5786 5785 5784 5783 5782 5782 5781 5780 5779 5777 5776 5775 5773 5772 5770 5769 5768 5767
5750 5754 5757 5759 5761 5764 5766 5769 5772 5774 5775 5777 5777 5778 5779 5779 5779 5779 5779 5779 5779 5779 5778 5778 5778 5778 5777 5777 5776 5775 5774 5773 5772 5770 5768 5766 5765 5764 5762 5761 5759 5758 5756 5755
5746 5749 5751 5754 5756 5758 5760 5763 5766 5768 5769 5770 5772 5772 5773 5773 5773 5773 5773 5772 5772 5772 5771 5771 5770 5769 5769 5768 5767 5766 5765 5764 5762 5761 5758 5757 5756 5755 5753 5751 5749 5747 5746 5744
5745 5747 5748 5750 5752 5754 5756 5758 5760 5762 5764 5765 5766 5766 5766 5766 5766 5766 5766 5765 5765 5764 5764 5763 5762 5761 5760 5759 5757 5756 5755 5753 5752 5751 5748 5746 5745 5743 5742 5740 5738 5736 5734 5732